Weather History for Ironwood, MI

Change the Weather History Date:

Friday, October 26, 2012

  Actual Average Record
Temperature  
Mean Temperature 35 °F -  
Max Temperature 39 °F 47 °F 66 °F (2000)
Min Temperature 33 °F 33 °F 21 °F (2006)
Degree Days  
Heating Degree Days 30    
Moisture  
Dew Point 22 °F    
Average Humidity 61    
Maximum Humidity 75    
Minimum Humidity 48    
Precipitation  
Precipitation 0.00 in - - ()
Sea Level Pressure  
Sea Level Pressure 30.14 in    
Wind  
Wind Speed 14 mph (WSW)    
Max Wind Speed 20 mph    
Max Gust Speed 30 mph    
Visibility 10 miles    
Events      
Averages and records for this station are not official NWS values.
T = Trace of Precipitation, MM = Missing Value Source: NWS Daily Summary

Daily Weather History Graph

Daily Weather History Graph

Search for Another Location

Airport:

Trip Planner

Search our weather history database for the weather conditions in past years. The results will help you decide how hot, cold, wet, or windy it might be!

Date:

Astronomy

Oct. 26, 2012 Rise Set
Actual Time 7:34 AM CDT 5:53 PM CDT
Civil Twilight 7:03 AM CDT 6:24 PM CDT
Nautical Twilight 6:27 AM CDT 7:00 PM CDT
Astronomical Twilight 5:52 AM CDT 7:35 PM CDT
Moon 4:16 PM CDT (10/26) 4:21 AM CDT (10/26)
Length of Visible Light 11h 21m
Length of Day
10h 19m
Waxing Gibbous, 91% of the Moon is Illuminated
Oct 26
Waxing Gibbous
Oct 29
Full
Nov 6
Last Quarter
Nov 13
New
Nov 20
First Quarter

Hourly Weather History & Observations

Time (CDT) Temp. Windchill Dew Point Humidity Pressure Visibility Wind Dir Wind Speed Gust Speed Precip Events Conditions
12:15 AM 33.8 °F 24.3 °F 26.6 °F 75% 29.93 in 10.0 mi West 13.8 mph 20.7 mph N/A   Scattered Clouds
12:35 AM 33.8 °F 23.5 °F 26.6 °F 75% 29.94 in 10.0 mi WSW 16.1 mph 19.6 mph N/A   Mostly Cloudy
1:15 AM 33.8 °F 24.3 °F 26.6 °F 75% 29.95 in 10.0 mi West 13.8 mph 21.9 mph N/A   Mostly Cloudy
1:35 AM 33.8 °F 24.3 °F 26.6 °F 75% 29.96 in 10.0 mi West 13.8 mph - N/A   Scattered Clouds
1:55 AM 33.8 °F 24.8 °F 26.6 °F 75% 29.97 in 10.0 mi WSW 12.7 mph - N/A   Partly Cloudy
2:15 AM 33.8 °F 23.5 °F 24.8 °F 70% 29.97 in 10.0 mi West 16.1 mph - N/A   Clear
2:35 AM 33.8 °F 24.3 °F 24.8 °F 70% 29.98 in 10.0 mi West 13.8 mph 19.6 mph N/A   Clear
2:55 AM 33.8 °F 23.5 °F 24.8 °F 70% 29.99 in 10.0 mi WSW 16.1 mph - N/A   Scattered Clouds
3:15 AM 33.8 °F 23.5 °F 24.8 °F 70% 29.99 in 10.0 mi West 16.1 mph 19.6 mph N/A   Overcast
3:35 AM 33.8 °F 23.2 °F 26.6 °F 75% 29.99 in 10.0 mi West 17.3 mph 21.9 mph N/A   Overcast
3:55 AM 33.8 °F 23.5 °F 24.8 °F 70% 30.00 in 10.0 mi West 16.1 mph 21.9 mph N/A   Overcast
4:15 AM 33.8 °F 23.2 °F 24.8 °F 70% 30.01 in 10.0 mi West 17.3 mph 24.2 mph N/A   Overcast
4:35 AM 33.8 °F 23.2 °F 24.8 °F 70% 30.02 in 10.0 mi WSW 17.3 mph - N/A   Overcast
4:55 AM 33.8 °F 22.8 °F 24.8 °F 70% 30.02 in 10.0 mi WSW 18.4 mph 23.0 mph N/A   Overcast
5:15 AM 33.8 °F 24.3 °F 24.8 °F 70% 30.03 in 10.0 mi WSW 13.8 mph - N/A   Overcast
5:35 AM 33.8 °F 23.9 °F 24.8 °F 70% 30.03 in 10.0 mi WSW 15.0 mph 20.7 mph N/A   Overcast
5:55 AM 33.8 °F 23.9 °F 24.8 °F 70% 30.04 in 10.0 mi WSW 15.0 mph 21.9 mph N/A   Overcast
6:15 AM 33.8 °F 25.3 °F 24.8 °F 70% 30.04 in 10.0 mi WSW 11.5 mph - N/A   Overcast
6:35 AM 33.8 °F 23.9 °F 24.8 °F 70% 30.05 in 10.0 mi WSW 15.0 mph - N/A   Overcast
6:55 AM 33.8 °F 23.9 °F 24.8 °F 70% 30.06 in 10.0 mi WSW 15.0 mph - N/A   Overcast
7:15 AM 33.8 °F 23.5 °F 24.8 °F 70% 30.06 in 10.0 mi WSW 16.1 mph 23.0 mph N/A   Overcast
7:55 AM 33.8 °F 24.3 °F 24.8 °F 70% 30.09 in 10.0 mi WSW 13.8 mph - N/A   Overcast
8:55 AM 33.8 °F 23.5 °F 24.8 °F 70% 30.12 in 10.0 mi WSW 16.1 mph 23.0 mph N/A   Overcast
9:15 AM 33.8 °F 22.8 °F 26.6 °F 75% 30.13 in 10.0 mi WSW 18.4 mph - N/A   Overcast
9:35 AM 33.8 °F 23.9 °F 26.6 °F 75% 30.14 in 10.0 mi West 15.0 mph 23.0 mph N/A   Overcast
10:15 AM 35.6 °F 25.9 °F 24.8 °F 65% 30.16 in 10.0 mi West 16.1 mph 24.2 mph N/A   Overcast
10:35 AM 35.6 °F 24.8 °F 24.8 °F 65% 30.17 in 10.0 mi West 19.6 mph 24.2 mph N/A   Overcast
10:55 AM 35.6 °F 25.5 °F 24.8 °F 65% 30.18 in 10.0 mi WSW 17.3 mph 24.2 mph N/A   Overcast
11:15 AM 35.6 °F 25.2 °F 24.8 °F 65% 30.18 in 10.0 mi West 18.4 mph 25.3 mph N/A   Overcast
11:35 AM 35.6 °F 25.2 °F 21.2 °F 56% 30.19 in 10.0 mi West 18.4 mph 29.9 mph N/A   Overcast
11:55 AM 35.6 °F 26.2 °F 21.2 °F 56% 30.19 in 10.0 mi West 15.0 mph 24.2 mph N/A   Overcast
12:15 PM 35.6 °F 24.8 °F 21.2 °F 56% 30.19 in 10.0 mi West 19.6 mph 26.5 mph N/A   Overcast
12:35 PM 35.6 °F 25.9 °F 21.2 °F 56% 30.19 in 10.0 mi West 16.1 mph 26.5 mph N/A   Overcast
12:55 PM 35.6 °F 25.5 °F 23.0 °F 60% 30.19 in 10.0 mi WSW 17.3 mph - N/A   Overcast
1:15 PM 35.6 °F 25.5 °F 21.2 °F 56% 30.19 in 10.0 mi WSW 17.3 mph - N/A   Overcast
1:35 PM 37.4 °F 27.8 °F 21.2 °F 52% 30.19 in 10.0 mi West 17.3 mph - N/A   Overcast
1:55 PM 37.4 °F 28.2 °F 19.4 °F 48% 30.19 in 10.0 mi WSW 16.1 mph - N/A   Overcast
2:15 PM 37.4 °F 27.2 °F 21.2 °F 52% 30.19 in 10.0 mi WSW 19.6 mph 24.2 mph N/A   Overcast
2:35 PM 37.4 °F 27.5 °F 21.2 °F 52% 30.19 in 10.0 mi West 18.4 mph 23.0 mph N/A   Overcast
2:55 PM 37.4 °F 29.8 °F 19.4 °F 48% 30.19 in 10.0 mi West 11.5 mph - N/A   Overcast
3:15 PM 37.4 °F 27.2 °F 21.2 °F 52% 30.19 in 10.0 mi WSW 19.6 mph 24.2 mph N/A   Overcast
3:35 PM 37.4 °F 27.5 °F 21.2 °F 52% 30.19 in 10.0 mi WSW 18.4 mph 26.5 mph N/A   Overcast
3:55 PM 37.4 °F 27.5 °F 21.2 °F 52% 30.20 in 10.0 mi West 18.4 mph - N/A   Overcast
4:15 PM 37.4 °F 29.3 °F 19.4 °F 48% 30.20 in 10.0 mi West 12.7 mph 24.2 mph N/A   Overcast
4:35 PM 37.4 °F 28.2 °F 19.4 °F 48% 30.21 in 10.0 mi West 16.1 mph - N/A   Overcast
4:55 PM 35.6 °F 25.5 °F 19.4 °F 52% 30.21 in 10.0 mi West 17.3 mph 24.2 mph N/A   Overcast
5:15 PM 35.6 °F 26.6 °F 19.4 °F 52% 30.21 in 10.0 mi West 13.8 mph - N/A   Overcast
5:35 PM 35.6 °F 27.5 °F 19.4 °F 52% 30.21 in 10.0 mi West 11.5 mph 17.3 mph N/A   Overcast
5:55 PM 35.6 °F 29.2 °F 19.4 °F 52% 30.21 in 10.0 mi West 8.1 mph - N/A   Overcast
6:15 PM 35.6 °F 29.2 °F 19.4 °F 52% 30.21 in 10.0 mi West 8.1 mph - N/A   Overcast
6:35 PM 35.6 °F 30.7 °F 19.4 °F 52% 30.22 in 10.0 mi WSW 5.8 mph - N/A   Overcast
6:55 PM 35.6 °F 27.5 °F 19.4 °F 52% 30.22 in 10.0 mi West 11.5 mph - N/A   Overcast
7:15 PM 35.6 °F 27.5 °F 19.4 °F 52% 30.23 in 10.0 mi West 11.5 mph - N/A   Overcast
7:35 PM 35.6 °F 28.6 °F 19.4 °F 52% 30.24 in 10.0 mi West 9.2 mph - N/A   Overcast
7:55 PM 35.6 °F 29.2 °F 19.4 °F 52% 30.23 in 10.0 mi WSW 8.1 mph - N/A   Overcast
8:15 PM 33.8 °F 27.7 °F 19.4 °F 56% 30.24 in 10.0 mi WSW 6.9 mph - N/A   Overcast
8:35 PM 33.8 °F 27.0 °F 19.4 °F 56% 30.23 in 10.0 mi WSW 8.1 mph - N/A   Overcast
8:55 PM 33.8 °F 27.0 °F 19.4 °F 56% 30.23 in 10.0 mi SW 8.1 mph - N/A   Overcast
9:15 PM 33.8 °F 27.0 °F 19.4 °F 56% 30.23 in 10.0 mi SW 8.1 mph - N/A   Overcast
9:35 PM 33.8 °F 27.0 °F 19.4 °F 56% 30.24 in 10.0 mi SW 8.1 mph - N/A   Overcast
9:55 PM 33.8 °F 27.0 °F 19.4 °F 56% 30.24 in 10.0 mi SW 8.1 mph - N/A   Overcast
10:15 PM 33.8 °F 27.0 °F 19.4 °F 56% 30.24 in 10.0 mi SW 8.1 mph - N/A   Overcast
10:35 PM 33.8 °F 25.8 °F 19.4 °F 56% 30.24 in 10.0 mi WSW 10.4 mph - N/A   Overcast
10:55 PM 33.8 °F 27.7 °F 19.4 °F 56% 30.24 in 10.0 mi WSW 6.9 mph - N/A   Overcast
11:15 PM 33.8 °F 27.0 °F 19.4 °F 56% 30.24 in 10.0 mi WSW 8.1 mph - N/A   Overcast
11:35 PM 33.8 °F 27.7 °F 19.4 °F 56% 30.24 in 10.0 mi WSW 6.9 mph - N/A   Overcast
11:55 PM 33.8 °F 28.6 °F 19.4 °F 56% 30.24 in 10.0 mi SW 5.8 mph - N/A   Overcast